Weather History for Artesia, NM

Change the Weather History Date:

Sunday, February 16, 2014

  Actual Average Record
Temperature  
Mean Temperature 59 °F -  
Max Temperature 77 °F 64 °F 82 °F (2011)
Min Temperature 41 °F 25 °F 10 °F (1990)
Degree Days  
Heating Degree Days 6    
Growing Degree Days 9 (Base 50)    
Moisture  
Dew Point 25 °F    
Average Humidity 33    
Maximum Humidity 70    
Minimum Humidity 13    
Precipitation  
Precipitation 0.00 in - - ()
Sea Level Pressure  
Sea Level Pressure 30.01 in    
Wind  
Wind Speed 11 mph (NW)    
Max Wind Speed 20 mph    
Max Gust Speed 25 mph    
Visibility 10 miles    
Events      
Averages and records for this station are not official NWS values.
T = Trace of Precipitation, MM = Missing Value Source: NWS Daily Summary

Daily Weather History Graph

Daily Weather History Graph

Search for Another Location

Airport:

Trip Planner

Search our weather history database for the weather conditions in past years. The results will help you decide how hot, cold, wet, or windy it might be!

Date:

Astronomy

Feb. 16, 2014 Rise Set
Actual Time 6:40 AM MST 5:44 PM MST
Civil Twilight 6:14 AM MST 6:09 PM MST
Nautical Twilight 5:45 AM MST 6:38 PM MST
Astronomical Twilight 5:17 AM MST 7:07 PM MST
Moon 7:34 PM MST (2/16) 7:18 AM MST (2/16)
Length of Visible Light 11h 54m
Length of Day
11h 04m
Full, 97% of the Moon is Illuminated
Feb 16
Full
Feb 22
Last Quarter
Mar 1
New
Mar 8
First Quarter
Mar 16
Full

Hourly Weather History & Observations

Time (MST) Temp. Windchill Dew Point Humidity Pressure Visibility Wind Dir Wind Speed Gust Speed Precip Events Conditions
12:15 AM 57.2 °F - 15.8 °F 20% 30.00 in 10.0 mi West 13.8 mph - N/A   Clear
12:35 AM 59.0 °F - 15.8 °F 19% 29.99 in 10.0 mi West 11.5 mph - N/A   Clear
12:55 AM 57.2 °F - 15.8 °F 20% 29.99 in 10.0 mi WSW 12.7 mph - N/A   Clear
1:15 AM 53.6 °F - 17.6 °F 24% 30.01 in 10.0 mi NNW 10.4 mph 21.9 mph N/A   Clear
1:35 AM 55.4 °F - 17.6 °F 23% 30.02 in 10.0 mi NW 12.7 mph - N/A   Clear
1:55 AM 53.6 °F - 17.6 °F 24% 30.03 in 10.0 mi NNW 12.7 mph - N/A   Clear
2:15 AM 51.8 °F - 17.6 °F 26% 30.02 in 10.0 mi NNW 16.1 mph - N/A   Clear
2:35 AM 50.0 °F - 21.2 °F 32% 30.03 in 10.0 mi NNW 16.1 mph - N/A   Clear
2:55 AM 48.2 °F - 24.8 °F 40% 30.05 in 10.0 mi NNW 15.0 mph - N/A   Clear
3:15 AM 46.4 °F 39.0 °F 28.4 °F 50% 30.05 in 10.0 mi NNW 19.6 mph 24.2 mph N/A   Clear
3:35 AM 46.4 °F 39.5 °F 32.0 °F 57% 30.05 in 10.0 mi NNW 17.3 mph 23.0 mph N/A   Clear
3:55 AM 46.4 °F 39.8 °F 32.0 °F 57% 30.05 in 10.0 mi NNW 16.1 mph 21.9 mph N/A   Clear
4:15 AM 44.6 °F 37.8 °F 32.0 °F 61% 30.06 in 10.0 mi NNW 15.0 mph - N/A   Clear
4:35 AM 44.6 °F 37.8 °F 32.0 °F 61% 30.06 in 10.0 mi NNW 15.0 mph - N/A   Clear
4:55 AM 44.6 °F 38.1 °F 32.0 °F 61% 30.06 in 10.0 mi NNW 13.8 mph - N/A   Clear
5:15 AM 44.6 °F 38.8 °F 32.0 °F 61% 30.07 in 10.0 mi NNW 11.5 mph - N/A   Clear
5:35 AM 44.6 °F 38.4 °F 32.0 °F 61% 30.07 in 10.0 mi NNW 12.7 mph - N/A   Clear
5:55 AM 44.6 °F 39.7 °F 32.0 °F 61% 30.07 in 10.0 mi NW 9.2 mph - N/A   Clear
6:15 AM 42.8 °F 38.0 °F 32.0 °F 66% 30.08 in 10.0 mi WNW 8.1 mph - N/A   Clear
6:35 AM 41.0 °F 34.7 °F 32.0 °F 70% 30.08 in 10.0 mi NW 10.4 mph - N/A   Clear
6:55 AM 42.8 °F 37.0 °F 32.0 °F 66% 30.08 in 10.0 mi NW 10.4 mph - N/A   Clear
7:15 AM 42.8 °F 35.8 °F 32.0 °F 66% 30.08 in 10.0 mi NNW 13.8 mph - N/A   Clear
7:35 AM 44.6 °F 38.8 °F 32.0 °F 61% 30.08 in 10.0 mi NNW 11.5 mph - N/A   Clear
7:55 AM 44.6 °F 38.4 °F 32.0 °F 61% 30.08 in 10.0 mi NNW 12.7 mph - N/A   Clear
8:15 AM 44.6 °F 40.2 °F 32.0 °F 61% 30.09 in 10.0 mi NNW 8.1 mph - N/A   Clear
8:35 AM 48.2 °F - 32.0 °F 54% 30.09 in 10.0 mi North 12.7 mph - N/A   Clear
8:55 AM 48.2 °F - 32.0 °F 54% 30.10 in 10.0 mi North 10.4 mph - N/A   Clear
9:15 AM 48.2 °F - 32.0 °F 54% 30.10 in 10.0 mi North 9.2 mph - N/A   Clear
9:35 AM 50.0 °F - 32.0 °F 50% 30.09 in 10.0 mi North 8.1 mph - N/A   Clear
9:55 AM 51.8 °F - 32.0 °F 47% 30.09 in 10.0 mi North 5.8 mph - N/A   Clear
10:15 AM 53.6 °F - 32.0 °F 44% 30.08 in 10.0 mi NE 4.6 mph - N/A   Clear
10:35 AM 55.4 °F - 32.0 °F 41% 30.08 in 10.0 mi NNE 4.6 mph - N/A   Clear
10:55 AM 55.4 °F - 32.0 °F 41% 30.07 in 10.0 mi NE 4.6 mph - N/A   Clear
11:15 AM 57.2 °F - 32.0 °F 38% 30.05 in 10.0 mi North 5.8 mph - N/A   Clear
11:35 AM 59.0 °F - 32.0 °F 36% 30.03 in 10.0 mi Calm Calm - N/A   Clear
11:55 AM 62.6 °F - 32.0 °F 32% 30.02 in 10.0 mi East 3.5 mph - N/A   Clear
12:15 PM 64.4 °F - 32.0 °F 30% 30.01 in 10.0 mi Calm Calm - N/A   Clear
12:35 PM 64.4 °F - 32.0 °F 30% 29.99 in 10.0 mi South 5.8 mph - N/A   Clear
12:55 PM 66.2 °F - 32.0 °F 28% 29.97 in 10.0 mi South 6.9 mph - N/A   Clear
1:15 PM 68.0 °F - 32.0 °F 26% 29.96 in 10.0 mi SE 9.2 mph - N/A   Clear
1:35 PM 68.0 °F - 32.0 °F 26% 29.95 in 10.0 mi SSE 8.1 mph - N/A   Clear
1:55 PM 68.0 °F - 32.0 °F 26% 29.94 in 10.0 mi SE 8.1 mph - N/A   Clear
2:15 PM 69.8 °F - 32.0 °F 25% 29.93 in 10.0 mi SE 8.1 mph - N/A   Clear
2:35 PM 71.6 °F - 32.0 °F 23% 29.92 in 10.0 mi SE 6.9 mph - N/A   Clear
2:55 PM 73.4 °F - 32.0 °F 22% 29.91 in 10.0 mi South 9.2 mph - N/A   Clear
3:15 PM 75.2 °F - 32.0 °F 21% 29.91 in 10.0 mi ESE 5.8 mph - N/A   Clear
3:35 PM 75.2 °F - 30.2 °F 19% 29.91 in 10.0 mi East 4.6 mph - N/A   Clear
3:55 PM 77.0 °F - 30.2 °F 18% 29.91 in 10.0 mi East 4.6 mph - N/A   Clear
4:15 PM 77.0 °F - 30.2 °F 18% 29.91 in 10.0 mi Calm Calm - N/A   Clear
4:35 PM 75.2 °F - 30.2 °F 19% 29.92 in 10.0 mi NNE 3.5 mph - N/A   Clear
4:55 PM 75.2 °F - 32.0 °F 21% 29.92 in 10.0 mi NNE 4.6 mph - N/A   Clear
5:15 PM 71.6 °F - 32.0 °F 23% 29.92 in 10.0 mi NNW 3.5 mph - N/A   Clear
5:35 PM 71.6 °F - 26.6 °F 19% 29.93 in 10.0 mi WNW 5.8 mph - N/A   Clear
5:55 PM 68.0 °F - 26.6 °F 21% 29.94 in 10.0 mi West 8.1 mph - N/A   Clear
6:15 PM 66.2 °F - 15.8 °F 14% 29.95 in 10.0 mi WSW 9.2 mph - N/A   Clear
6:35 PM 64.4 °F - 14.0 °F 14% 29.96 in 10.0 mi West 9.2 mph - N/A   Clear
6:55 PM 62.6 °F - 14.0 °F 15% 29.96 in 10.0 mi West 10.4 mph - N/A   Clear
7:15 PM 62.6 °F - 14.0 °F 15% 29.96 in 10.0 mi WSW 9.2 mph - N/A   Clear
7:35 PM 62.6 °F - 14.0 °F 15% 29.96 in 10.0 mi WSW 11.5 mph - N/A   Clear
7:55 PM 60.8 °F - 14.0 °F 16% 29.96 in 10.0 mi WSW 12.7 mph - N/A   Clear
8:15 PM 62.6 °F - 14.0 °F 15% 29.96 in 10.0 mi WSW 12.7 mph - N/A   Clear
8:35 PM 60.8 °F - 14.0 °F 16% 29.97 in 10.0 mi SW 11.5 mph - N/A   Clear
8:55 PM 62.6 °F - 14.0 °F 15% 29.97 in 10.0 mi SW 12.7 mph - N/A   Clear
9:15 PM 62.6 °F - 14.0 °F 15% 29.98 in 10.0 mi WSW 13.8 mph - N/A   Clear
9:35 PM 62.6 °F - 14.0 °F 15% 29.98 in 10.0 mi WSW 13.8 mph - N/A   Clear
9:55 PM 64.4 °F - 14.0 °F 14% 29.98 in 10.0 mi West 15.0 mph - N/A   Clear
10:15 PM 64.4 °F - 14.0 °F 14% 29.99 in 10.0 mi West 17.3 mph - N/A   Clear
10:35 PM 64.4 °F - 12.2 °F 13% 29.99 in 10.0 mi West 18.4 mph 24.2 mph N/A   Clear
10:55 PM 64.4 °F - 12.2 °F 13% 29.99 in 10.0 mi West 16.1 mph 25.3 mph N/A   Clear
11:15 PM 60.8 °F - 14.0 °F 16% 30.00 in 10.0 mi West 11.5 mph - N/A   Clear
11:35 PM 60.8 °F - 14.0 °F 16% 30.00 in 10.0 mi West 12.7 mph - N/A   Clear
11:55 PM 59.0 °F - 14.0 °F 17% 30.01 in 10.0 mi West 9.2 mph - N/A   Clear